TimeCDT,TemperatureF,Dew PointF,Humidity,Sea Level PressureIn,VisibilityMPH,Wind Direction,Wind SpeedMPH,Gust SpeedMPH,PrecipitationIn,Events,Conditions,WindDirDegrees,DateUTC
12:56 AM,72.9,70.0,91,29.98,10.0,Calm,Calm,-,N/A,,Overcast,0,2013-09-09 05:56:00
1:56 AM,70.9,70.0,97,29.98,10.0,SE,4.6,-,N/A,,Clear,140,2013-09-09 06:56:00
2:56 AM,70.0,70.0,100,29.98,10.0,SE,3.5,-,N/A,,Clear,130,2013-09-09 07:56:00
3:56 AM,70.0,70.0,100,29.99,10.0,Calm,Calm,-,N/A,,Clear,0,2013-09-09 08:56:00
4:56 AM,68.9,68.9,100,29.99,10.0,SE,4.6,-,N/A,,Clear,140,2013-09-09 09:56:00
5:56 AM,68.9,68.9,100,29.99,10.0,SE,4.6,-,N/A,,Partly Cloudy,140,2013-09-09 10:56:00
6:56 AM,70.0,70.0,100,30.00,8.0,SE,4.6,-,N/A,,Clear,140,2013-09-09 11:56:00
7:56 AM,72.9,72.0,97,30.00,7.0,SSE,5.8,-,N/A,,Clear,160,2013-09-09 12:56:00
8:56 AM,75.9,72.9,90,30.01,6.0,South,5.8,-,N/A,,Haze,180,2013-09-09 13:56:00
9:56 AM,81.9,73.9,77,30.02,7.0,South,4.6,-,N/A,,Scattered Clouds,170,2013-09-09 14:56:00
10:56 AM,86.0,73.9,67,30.02,7.0,South,10.4,-,N/A,,Partly Cloudy,190,2013-09-09 15:56:00
11:56 AM,86.9,73.9,65,30.02,7.0,South,9.2,-,N/A,,Clear,180,2013-09-09 16:56:00
12:56 PM,88.9,73.9,61,30.00,7.0,South,10.4,-,N/A,,Clear,190,2013-09-09 17:56:00
1:56 PM,90.9,74.8,59,29.99,7.0,SSW,9.2,-,N/A,,Clear,210,2013-09-09 18:56:00
2:56 PM,91.9,72.9,53,29.97,8.0,SSW,5.8,-,N/A,,Clear,210,2013-09-09 19:56:00
3:56 PM,90.9,73.9,57,29.96,10.0,South,6.9,-,N/A,,Clear,180,2013-09-09 20:56:00
4:56 PM,90.0,73.9,59,29.96,8.0,South,5.8,-,N/A,,Clear,180,2013-09-09 21:56:00
5:56 PM,88.9,74.8,63,29.96,10.0,SSW,8.1,-,N/A,,Clear,200,2013-09-09 22:56:00
6:56 PM,83.8,73.9,72,29.98,10.0,SSW,5.8,-,N/A,,Clear,200,2013-09-09 23:56:00
7:56 PM,79.9,73.9,82,29.99,10.0,South,4.6,-,N/A,,Clear,190,2013-09-10 00:56:00
8:56 PM,77.9,73.9,88,30.01,10.0,South,5.8,-,N/A,,Clear,180,2013-09-10 01:56:00
9:56 PM,77.9,73.9,88,30.02,10.0,South,5.8,-,N/A,,Clear,170,2013-09-10 02:56:00
10:56 PM,75.9,73.9,94,30.02,10.0,South,4.6,-,N/A,,Clear,170,2013-09-10 03:56:00
11:56 PM,75.9,73.9,94,30.02,10.0,South,5.8,-,N/A,,Clear,170,2013-09-10 04:56:00